Starlink 32441

operational
NORAD ID: 61668 Int'l Des: 2024-193 Owner: SPXS Country: US Constellation: starlink
LEOCIRCULAR

Starlink 32441について

説明を読み込み中...

リアルタイム位置

3D地球を読み込み中...

次回通過

高度履歴

Altitude vs Time

uPlot chart will show altitude changes over time

軌道要素

1 61668U 24193H 25352.55930472 -.00019819 00000-0 -65732-3 0 9994
2 61668 53.1604 107.9633 0000816 320.6466 39.4476 15.30273274 64107
Epoch: Dec 18, 2025 • Age: 7 hours

現在のステータス

高度 493.2 km
速度 7.62 km/s
衛星直下点 -53.31°S, 25.13°W
打ち上げ日 Oct 26, 2024
運用期間 1.1 years
タイプ internet

技術仕様

分類 Payload
質量 730.00 kg
乾燥質量 700.00 kg
総質量 730.00 kg
長さ 0.30 m
直径 4.10 m
スパン 29.00 m
形状 Box + pan
製造者 SPXS
バスタイプ Starlink V2M
フェーズステータス In Orbit
所有者/国 SPXS/US

大規模コンステレーション

Loading constellations...